Regional Weather Roundup
Issued by NWS

Home | Current Version | Previous Version | Graphics & Text | Print | Product List | Glossary On
Versions: 1 2 3 4 5 6 7 8 9 10 11 12 13 14 15 16 17 18 19 20 21 22 23 24 25 26 27 28 29 30 31 32 33 34 35 36 37 38 39 40 41 42 43 44 45 46 47 48 49 50
000
ASUS43 KOAX 271402
RWRNE

WEATHER ROUNDUP FOR NEBRASKA
NATIONAL WEATHER SERVICE OMAHA NE
900 AM CDT WED JUL 27 2016

NOTES: SATELLITE DATA IS BEING USED TO AUGMENT CLOUD COVER ABOVE
       12000 FEET.
       "FAIR" INDICATES FEW OR NO CLOUDS BELOW 12,000 FEET WITH NO
       SIGNIFICANT WEATHER AND/OR OBSTRUCTIONS TO VISIBILITY.

  * THESE STATIONS DO NOT REPORT WEATHER SUCH AS RAIN...SNOW OR FOG.

NEZ001>004-019>022-054>056-271500-
NEBRASKA PANHANDLE

CITY           SKY/WX    TMP DP  RH WIND       PRES   REMARKS
SCOTTSBLUFF    CLOUDY    65  60  84 E8        30.22R
ALLIANCE       LGT RAIN  63  61  93 W16       30.22R
CHADRON        RAIN      64  58  80 NW13      30.19F
KIMBALL        CLOUDY    64  59  85 NE16      30.25F
SIDNEY         CLOUDY    64  57  78 NW3       30.23R
$$

NEZ057>060-069>072-079>082-271500-
SOUTHWEST NEBRASKA

CITY           SKY/WX    TMP DP  RH WIND       PRES   REMARKS
NORTH PLATTE   MOSUNNY   67  61  81 NW5       30.08R
IMPERIAL       SUNNY     65  58  78 NW3       30.13S
LEXINGTON      SUNNY     66  62  85 W6        30.07R
MCCOOK         SUNNY     68  60  75 W5        30.07F
OGALLALA       SUNNY     68  59  72 SW7       30.11S
$$

NEZ005>010-023>029-035>040-094-271500-
NORTH CENTRAL NEBRASKA

CITY           SKY/WX    TMP DP  RH WIND       PRES   REMARKS
VALENTINE      MOSUNNY   70  60  70 MISG      30.07R
AINSWORTH      PTSUNNY   67  62  84 N6        30.08R
BROKEN BOW     SUNNY     68  62  81 W5        30.07R
O`NEILL        MOSUNNY   70  61  72 NW8       30.09R
ORD            MOSUNNY   67  60  78 N8        30.07R
THEDFORD       CLOUDY    66  62  85 N5        30.10R
$$

NEZ041-046>049-061>064-073>077-083>087-271500-
SOUTH CENTRAL NEBRASKA

CITY           SKY/WX    TMP DP  RH WIND       PRES   REMARKS
GRAND ISLAND   SUNNY     70  62  76 NE16      30.07R
AURORA         MOSUNNY   70  63  78 N12       30.06R
HASTINGS       CLOUDY    68  62  81 W12       30.05R
HEBRON         MOSUNNY   75  67  77 W7        30.03R
HOLDREGE       SUNNY     67  62  84 CALM      30.07R
KEARNEY *      SUNNY     70  12  11 W6        30.05S
YORK           MOSUNNY   70  63  78 N14G21    30.06R
$$

NEZ011>018-030>034-042>045-271500-
NORTHEAST NEBRASKA

CITY           SKY/WX    TMP DP  RH WIND       PRES   REMARKS
NORFOLK        SUNNY     73  66  78 NW10      30.03R
ALBION         SUNNY     68  65  90 N10       30.07R
BLAIR          MOSUNNY   74  68  83 SW5       30.02R
FREMONT        CLOUDY    74  67  76 S6        30.01R
TEKAMAH        CLOUDY    72  68  87 S5        29.99R
WAYNE          CLOUDY    73  69  86 NE6       30.01R
$$

NEZ050>053-065>068-078-088>093-271500-
SOUTHEAST NEBRASKA

CITY           SKY/WX    TMP DP  RH WIND       PRES   REMARKS
LINCOLN        MOSUNNY   76  67  73 NW9       30.03R
OMAHA EPPLEY   PTSUNNY   76  67  73 S7        29.99R
BEATRICE       SUNNY     76  68  75 SW7       30.01R
FALLS CITY     SUNNY     76  69  79 S6        29.96R
NEBRASKA CITY  SUNNY     75  70  85 S6        29.99R
PLATTSMOUTH    MOSUNNY   75  70  84 S8        29.99R
$$

NEZ044-045-051>053-067-271500-
OMAHA AREA

CITY           SKY/WX    TMP DP  RH WIND       PRES   REMARKS
OMAHA EPPLEY   PTSUNNY   76  67  73 S7        29.99R
BLAIR          MOSUNNY   74  68  83 SW5       30.02R
FREMONT        CLOUDY    74  67  76 S6        30.01R
MILLARD        MOSUNNY   76  68  78 W5        30.01R
OFFUTT AFB     CLOUDY    76  70  82 SW5       30.00R
PLATTSMOUTH    MOSUNNY   75  70  84 S8        29.99R
WAHOO          FAIR      74  68  82 W6        30.02R
$$




USA.gov is the U.S. government's official web portal to all federal, state and local government web resources and services.